• In Czech Republic
  • List of Countries
  • For 7 days
  • Water Temperature
  • Satellite Maps
  • Weather Map
  • Weather Widgets
  • user-avatar
    Login

    Hourly Weather Zhlobin

    Today, 26 September, Wednesday

    Time Temperature Precipitation Wind Pressure Humidity
    00:00 +3°C° 0 mm 4 mps 757 mmHg 79%
    01:00 +3°C° 0 mm 4 mps 758 mmHg 79%
    02:00 +2°C° 0 mm 3 mps 758 mmHg 82%
    03:00 +1°C° 0 mm 3 mps 758 mmHg 82%
    04:00 +1°C° 0 mm 3 mps 759 mmHg 82%
    05:00 +1°C° 0 mm 3 mps 759 mmHg 82%
    06:00 +2°C° 0 mm 3 mps 760 mmHg 80%
    07:00 +3°C° 0 mm 3 mps 760 mmHg 78%
    08:00 +4°C° 0 mm 4 mps 761 mmHg 75%
    09:00 +6°C° 0 mm 4 mps 761 mmHg 68%
    10:00 +8°C° 0 mm 4 mps 761 mmHg 60%
    11:00 +10°C° 0 mm 4 mps 761 mmHg 53%
    12:00 +11°C° 0 mm 4 mps 760 mmHg 50%
    13:00 +12°C° 0 mm 5 mps 760 mmHg 46%
    14:00 +13°C° 0 mm 5 mps 760 mmHg 43%
    15:00 +12°C° 0 mm 4 mps 759 mmHg 47%
    16:00 +11°C° 0 mm 4 mps 758 mmHg 50%
    17:00 +10°C° 0 mm 4 mps 758 mmHg 53%
    18:00 +10°C° 0 mm 4 mps 757 mmHg 53%
    19:00 +8°C° 0 mm 5 mps 757 mmHg 53%
    20:00 +8°C° 0 mm 5 mps 757 mmHg 53%
    21:00 +8°C° 0.1 mm 6 mps 756 mmHg 56%
    22:00 +8°C° 0.1 mm 6 mps 756 mmHg 60%
    23:00 +6°C° 0.1 mm 7 mps 755 mmHg 64%

    Tomorrow, 27 September, Thursday

    Time Temperature Precipitation Wind Pressure Humidity
    00:00 +6°C° 0.1 mm 7 mps 754 mmHg 68%
    01:00 +6°C° 0.1 mm 8 mps 754 mmHg 72%
    02:00 +6°C° 0.1 mm 8 mps 753 mmHg 76%
    03:00 +6°C° 0.3 mm 8 mps 752 mmHg 79%
    04:00 +6°C° 0.3 mm 8 mps 751 mmHg 82%
    05:00 +6°C° 0.3 mm 8 mps 751 mmHg 85%
    06:00 +6°C° 0.2 mm 8 mps 750 mmHg 85%
    07:00 +7°C° 0.2 mm 8 mps 750 mmHg 86%
    08:00 +7°C° 0.2 mm 8 mps 750 mmHg 87%
    09:00 +9°C° 0 mm 7 mps 750 mmHg 85%
    10:00 +9°C° 0 mm 7 mps 750 mmHg 84%
    11:00 +10°C° 0 mm 7 mps 751 mmHg 82%
    12:00 +11°C° 0 mm 7 mps 751 mmHg 80%
    13:00 +12°C° 0 mm 7 mps 751 mmHg 77%
    14:00 +14°C° 0 mm 7 mps 751 mmHg 75%
    15:00 +14°C° 0 mm 6 mps 751 mmHg 74%
    16:00 +14°C° 0 mm 6 mps 751 mmHg 73%
    17:00 +14°C° 0 mm 5 mps 751 mmHg 72%
    18:00 +13°C° 0 mm 5 mps 751 mmHg 75%
    19:00 +12°C° 0 mm 4 mps 752 mmHg 78%
    20:00 +11°C° 0 mm 3 mps 752 mmHg 81%
    21:00 +10°C° 0 mm 3 mps 752 mmHg 84%
    22:00 +10°C° 0 mm 3 mps 752 mmHg 87%
    23:00 +9°C° 0 mm 3 mps 752 mmHg 90%

    Day after tomorrow, 28 September, Friday

    Time Temperature Precipitation Wind Pressure Humidity
    00:00 +9°C° 0 mm 3 mps 752 mmHg 92%
    01:00 +8°C° 0 mm 4 mps 751 mmHg 93%
    02:00 +8°C° 0 mm 4 mps 751 mmHg 94%
    03:00 +8°C° 0 mm 4 mps 751 mmHg 94%
    04:00 +8°C° 0 mm 4 mps 750 mmHg 95%
    05:00 +9°C° 0 mm 5 mps 749 mmHg 96%
    06:00 +10°C° 0 mm 5 mps 749 mmHg 93%
    07:00 +11°C° 0 mm 6 mps 748 mmHg 90%
    08:00 +12°C° 0 mm 7 mps 748 mmHg 87%
    09:00 +14°C° 0 mm 7 mps 748 mmHg 82%
    10:00 +15°C° 0 mm 7 mps 747 mmHg 77%
    11:00 +16°C° 0 mm 8 mps 747 mmHg 73%
    12:00 +16°C° 0 mm 7 mps 747 mmHg 74%
    13:00 +16°C° 0 mm 7 mps 747 mmHg 74%
    14:00 +16°C° 0 mm 7 mps 747 mmHg 75%
    15:00 +15°C° 0.1 mm 6 mps 747 mmHg 75%
    16:00 +15°C° 0.1 mm 5 mps 747 mmHg 76%
    17:00 +14°C° 0.1 mm 4 mps 747 mmHg 77%
    18:00 +13°C° 0 mm 3 mps 747 mmHg 77%
    19:00 +12°C° 0 mm 3 mps 748 mmHg 76%
    20:00 +12°C° 0 mm 2 mps 748 mmHg 76%
    21:00 +10°C° 0 mm 2 mps 749 mmHg 78%
    22:00 +10°C° 0 mm 2 mps 749 mmHg 80%
    23:00 +9°C° 0 mm 2 mps 749 mmHg 82%

    29 September, Saturday

    Time Temperature Precipitation Wind Pressure Humidity
    00:00 +8°C° 0 mm 2 mps 750 mmHg 84%
    01:00 +8°C° 0 mm 2 mps 750 mmHg 86%
    02:00 +8°C° 0 mm 1 mps 750 mmHg 88%
    03:00 +8°C° 0 mm 1 mps 750 mmHg 87%
    04:00 +8°C° 0 mm 1 mps 750 mmHg 86%
    05:00 +8°C° 0 mm 1 mps 750 mmHg 85%
    06:00 +9°C° 0 mm 1 mps 751 mmHg 82%
    07:00 +9°C° 0 mm 1 mps 751 mmHg 79%
    08:00 +10°C° 0 mm 1 mps 751 mmHg 77%
    09:00 +9°C° 0 mm 2 mps 752 mmHg 72%
    10:00 +10°C° 0 mm 2 mps 752 mmHg 67%
    11:00 +12°C° 0 mm 2 mps 753 mmHg 62%
    12:00 +11°C° 0 mm 3 mps 753 mmHg 60%
    13:00 +11°C° 0 mm 3 mps 753 mmHg 59%
    14:00 +11°C° 0 mm 3 mps 753 mmHg 58%
    15:00 +11°C° 0 mm 3 mps 754 mmHg 60%
    16:00 +10°C° 0 mm 2 mps 754 mmHg 63%
    17:00 +10°C° 0 mm 2 mps 754 mmHg 66%
    18:00 +9°C° 0 mm 2 mps 755 mmHg 70%
    19:00 +7°C° 0 mm 2 mps 755 mmHg 75%
    20:00 +6°C° 0 mm 2 mps 756 mmHg 80%
    21:00 +7°C° 0 mm 1 mps 756 mmHg 81%
    22:00 +6°C° 0 mm 1 mps 757 mmHg 82%
    23:00 +6°C° 0 mm 1 mps 757 mmHg 83%

    30 September, Sunday

    Time Temperature Precipitation Wind Pressure Humidity
    00:00 +6°C° 0 mm 1 mps 757 mmHg 84%
    01:00 +5°C° 0 mm 1 mps 757 mmHg 84%
    02:00 +5°C° 0 mm 1 mps 758 mmHg 85%
    03:00 +5°C° 0 mm 1 mps 758 mmHg 85%
    04:00 +4°C° 0 mm 1 mps 758 mmHg 86%
    05:00 +4°C° 0 mm 1 mps 758 mmHg 86%
    06:00 +5°C° 0 mm 1 mps 758 mmHg 81%
    07:00 +6°C° 0 mm 1 mps 759 mmHg 76%
    08:00 +7°C° 0 mm 1 mps 759 mmHg 71%
    09:00 +9°C° 0 mm 1 mps 759 mmHg 65%
    10:00 +11°C° 0 mm 1 mps 759 mmHg 59%
    11:00 +13°C° 0 mm 2 mps 759 mmHg 52%
    12:00 +13°C° 0 mm 2 mps 759 mmHg 50%
    13:00 +14°C° 0 mm 2 mps 758 mmHg 47%
    14:00 +14°C° 0 mm 2 mps 758 mmHg 44%
    15:00 +13°C° 0 mm 2 mps 758 mmHg 48%
    16:00 +12°C° 0 mm 2 mps 758 mmHg 53%
    17:00 +12°C° 0 mm 1 mps 757 mmHg 57%
    18:00 +10°C° 0 mm 1 mps 757 mmHg 60%
    19:00 +9°C° 0 mm 1 mps 757 mmHg 62%
    20:00 +8°C° 0 mm 1 mps 757 mmHg 65%
    21:00 +7°C° 0 mm 2 mps 757 mmHg 66%
    22:00 +6°C° 0 mm 2 mps 757 mmHg 67%
    23:00 +6°C° 0 mm 2 mps 757 mmHg 68%

    1 October, Monday

    Time Temperature Precipitation Wind Pressure Humidity
    00:00 +5°C° 0 mm 2 mps 757 mmHg 68%
    01:00 +5°C° 0 mm 2 mps 757 mmHg 69%
    02:00 +5°C° 0 mm 2 mps 757 mmHg 69%
    03:00 +4°C° 0 mm 2 mps 756 mmHg 70%
    04:00 +4°C° 0 mm 2 mps 756 mmHg 71%
    05:00 +4°C° 0 mm 2 mps 756 mmHg 72%
    06:00 +5°C° 0 mm 2 mps 756 mmHg 69%
    07:00 +6°C° 0 mm 2 mps 756 mmHg 67%
    08:00 +7°C° 0 mm 2 mps 755 mmHg 64%
    09:00 +9°C° 0 mm 3 mps 755 mmHg 58%
    10:00 +10°C° 0 mm 3 mps 755 mmHg 53%
    11:00 +12°C° 0 mm 3 mps 755 mmHg 47%
    12:00 +13°C° 0 mm 4 mps 754 mmHg 45%
    13:00 +14°C° 0 mm 4 mps 753 mmHg 43%
    14:00 +14°C° 0 mm 4 mps 753 mmHg 41%
    15:00 +13°C° 0 mm 3 mps 752 mmHg 46%
    16:00 +12°C° 0 mm 3 mps 752 mmHg 50%
    17:00 +12°C° 0 mm 2 mps 752 mmHg 54%
    18:00 +10°C° 0 mm 2 mps 752 mmHg 57%
    19:00 +9°C° 0 mm 2 mps 752 mmHg 59%
    20:00 +7°C° 0 mm 2 mps 752 mmHg 61%
    21:00 +7°C° 0 mm 2 mps 752 mmHg 61%
    22:00 +6°C° 0 mm 2 mps 752 mmHg 60%
    23:00 +6°C° 0 mm 2 mps 752 mmHg 60%
    Show more